QPF
0.00 0.00 0.00 0.00 0.00 0.00 0.00 0.00 0.00 0.01 0.00 0.00 0.00 0.00 0.00 0.02 0.03 0.03 0.04 0.08 0.12 0.17 0.26 0.33 0.35 0.35 0.37 0.29 0.19 0.12 0.07 0.06 0.05 0.02 0.01 0.01 0.00 0.00 0.00 0.00 0.00 0.00 0.00 0.00
0.00 0.00 0.00 0.00 0.00 0.00 0.00 0.00 0.00 0.00 0.00 0.00 0.00 0.00 0.01 0.01 0.02 0.02 0.03 0.05 0.07 0.12 0.20 0.29 0.35 0.38 0.34 0.26 0.17 0.12 0.08 0.04 0.03 0.01 0.01 0.00 0.00 0.00 0.00 0.00 0.00 0.00 0.00 0.00
0.00 0.00 0.00 0.00 0.00 0.00 0.00 0.00 0.00 0.00 0.00 0.00 0.00 0.00 0.01 0.01 0.02 0.02 0.02 0.04 0.05 0.06 0.13 0.20 0.26 0.31 0.28 0.20 0.13 0.11 0.09 0.04 0.02 0.01 0.01 0.00 0.00 0.00 0.00 0.00 0.00 0.00 0.00 0.00
0.00 0.00 0.00 0.00 0.00 0.00 0.00 0.00 0.00 0.00 0.00 0.00 0.00 0.00 0.00 0.01 0.01 0.01 0.02 0.03 0.04 0.05 0.08 0.16 0.20 0.21 0.21 0.17 0.12 0.10 0.06 0.03 0.01 0.00 0.00 0.00 0.00 0.00 0.00 0.00 0.00 0.00 0.00 0.00
0.00 0.00 0.00 0.00 0.00 0.00 0.00 0.00 0.00 0.00 0.00 0.00 0.00 0.00 0.00 0.00 0.00 0.00 0.01 0.01 0.02 0.04 0.05 0.08 0.12 0.10 0.09 0.07 0.08 0.07 0.04 0.01 0.01 0.00 0.00 0.00 0.00 0.00 0.00 0.00 0.00 0.00 0.00 0.00
0.00 0.00 0.00 0.00 0.00 0.00 0.00 0.00 0.00 0.00 0.00 0.00 0.00 0.00 0.00 0.00 0.00 0.00 0.00 0.00 0.02 0.03 0.02 0.03 0.05 0.03 0.03 0.02 0.03 0.03 0.02 0.01 0.00 0.00 0.00 0.00 0.00 0.00 0.00 0.00 0.00 0.00 0.00 0.00
0.00 0.00 0.00 0.00 0.00 0.00 0.00 0.00 0.00 0.00 0.00 0.00 0.00 0.00 0.00 0.00 0.00 0.00 0.00 0.00 0.01 0.01 0.01 0.01 0.01 0.00 0.01 0.01 0.01 0.01 0.01 0.00 0.00 0.00 0.00 0.00 0.00 0.00 0.00 0.00 0.00 0.00 0.00 0.00
0.00 0.00 0.00 0.00 0.00 0.00 0.00 0.01 0.01 0.00 0.00 0.00 0.00 0.00 0.00 0.00 0.00 0.00 0.00 0.00 0.00 0.00 0.00 0.00 0.00 0.00 0.00 0.00 0.00 0.00 0.00 0.00 0.00 0.00 0.00 0.00 0.00 0.00 0.00 0.00 0.00 0.00 0.00 0.00
0.01 0.01 0.00 0.00 0.00 0.00 0.00 0.01 0.01 0.00 0.00 0.00 0.00 0.00 0.00 0.00 0.00 0.00 0.00 0.00 0.00 0.00 0.00 0.00 0.00 0.00 0.00 0.00 0.00 0.00 0.00 0.00 0.00 0.00 0.00 0.00 0.00 0.00 0.00 0.00 0.00 0.00 0.00 0.00
0.01 0.01 0.01 0.01 0.01 0.01 0.01 0.01 0.01 0.01 0.01 0.01 0.00 0.00 0.00 0.00 0.00 0.00 0.00 0.00 0.00 0.00 0.00 0.00 0.00 0.00 0.00 0.00 0.00 0.00 0.00 0.00 0.00 0.00 0.00 0.00 0.00 0.00 0.00 0.00 0.00 0.00 0.00 0.00
0.01 0.01 0.01 0.01 0.01 0.00 0.01 0.00 0.01 0.00 0.01 0.01 0.00 0.00 0.00 0.00 0.00 0.00 0.00 0.00 0.00 0.00 0.00 0.00 0.00 0.00 0.00 0.00 0.00 0.00 0.00 0.00 0.00 0.00 0.00 0.00 0.00 0.00 0.00 0.00 0.00 0.00 0.00 0.00
0.01 0.01 0.01 0.01 0.00 0.00 0.01 0.01 0.00 0.00 0.00 0.00 0.00 0.00 0.00 0.00 0.00 0.00 0.00 0.00 0.00 0.00 0.00 0.00 0.00 0.00 0.00 0.00 0.00 0.00 0.00 0.00 0.00 0.00 0.00 0.00 0.00 0.00 0.00 0.00 0.00 0.00 0.00 0.00
0.01 0.01 0.01 0.00 0.00 0.00 0.00 0.00 0.00 0.00 0.00 0.00 0.00 0.00 0.00 0.00 0.00 0.00 0.00 0.00 0.00 0.00 0.00 0.00 0.00 0.00 0.00 0.00 0.00 0.00 0.00 0.00 0.00 0.00 0.00 0.00 0.00 0.00 0.00 0.00 0.00 0.00 0.00 0.00
0.00 0.00 0.00 0.00 0.00 0.00 0.00 0.00 0.00 0.00 0.00 0.00 0.00 0.00 0.01 0.01 0.00 0.00 0.00 0.00 0.00 0.00 0.00 0.00 0.00 0.00 0.00 0.00 0.00 0.00 0.00 0.00 0.00 0.00 0.00 0.00 0.00 0.00 0.00 0.00 0.00 0.00 0.00 0.00
0.01 0.01 0.00 0.00 0.00 0.00 0.00 0.00 0.00 0.00 0.00 0.00 0.00 0.00 0.00 0.00 0.00 0.00 0.00 0.00 0.00 0.00 0.00 0.00 0.00 0.00 0.00 0.00 0.00 0.00 0.00 0.00 0.00 0.00 0.00 0.00 0.00 0.00 0.00 0.00 0.00 0.00 0.00 0.00
0.01 0.01 0.00 0.00 0.00 0.00 0.00 0.00 0.00 0.00 0.00 0.00 0.00 0.00 0.00 0.00 0.00 0.00 0.00 0.00 0.00 0.00 0.00 0.00 0.00 0.00 0.00 0.00 0.00 0.00 0.00 0.00 0.00 0.00 0.00 0.00 0.00 0.00 0.00 0.00 0.00 0.00 0.00 0.00
0.01 0.00 0.00 0.00 0.01 0.00 0.00 0.00 0.00 0.01 0.01 0.00 0.00 0.01 0.00 0.01 0.01 0.01 0.01 0.01 0.01 0.01 0.00 0.01 0.01 0.01 0.01 0.00 0.00 0.00 0.00 0.01 0.00 0.00 0.00 0.00 0.00 0.00 0.00 0.00 0.00 0.00 0.00 0.00
0.00 0.00 0.00 0.00 0.00 0.00 0.00 0.00 0.00 0.01 0.01 0.01 0.01 0.01 0.02 0.02 0.03 0.03 0.03 0.02 0.02 0.02 0.02 0.02 0.02 0.02 0.01 0.01 0.01 0.01 0.01 0.01 0.00 0.00 0.00 0.00 0.00 0.00 0.00 0.00 0.00 0.00 0.00 0.00
0.00 0.01 0.00 0.00 0.00 0.00 0.01 0.01 0.01 0.01 0.01 0.01 0.02 0.02 0.02 0.04 0.04 0.03 0.03 0.03 0.03 0.03 0.03 0.03 0.03 0.02 0.02 0.01 0.01 0.01 0.01 0.01 0.01 0.01 0.01 0.01 0.01 0.00 0.00 0.00 0.01 0.01 0.00 0.00
0.01 0.00 0.00 0.00 0.01 0.01 0.01 0.01 0.01 0.02 0.02 0.01 0.01 0.01 0.02 0.02 0.04 0.04 0.04 0.04 0.04 0.04 0.03 0.03 0.03 0.03 0.02 0.02 0.02 0.02 0.02 0.02 0.02 0.02 0.02 0.02 0.01 0.01 0.01 0.01 0.01 0.01 0.01 0.01
0.01 0.01 0.01 0.01 0.01 0.01 0.01 0.01 0.02 0.03 0.03 0.02 0.02 0.02 0.02 0.03 0.05 0.06 0.05 0.04 0.04 0.04 0.04 0.04 0.03 0.03 0.02 0.03 0.03 0.03 0.03 0.03 0.03 0.03 0.03 0.02 0.02 0.02 0.02 0.02 0.02 0.01 0.01 0.01
0.01 0.01 0.01 0.01 0.01 0.01 0.01 0.01 0.03 0.03 0.03 0.02 0.02 0.01 0.02 0.03 0.03 0.04 0.04 0.04 0.04 0.04 0.04 0.04 0.04 0.04 0.03 0.03 0.04 0.04 0.04 0.04 0.04 0.04 0.03 0.03 0.03 0.03 0.03 0.02 0.02 0.02 0.01 0.01
0.01 0.00 0.00 0.01 0.01 0.01 0.01 0.02 0.03 0.03 0.02 0.02 0.02 0.03 0.03 0.03 0.03 0.03 0.03 0.03 0.04 0.03 0.03 0.03 0.03 0.04 0.04 0.04 0.04 0.04 0.04 0.04 0.04 0.03 0.03 0.03 0.04 0.04 0.04 0.03 0.03 0.02 0.02 0.01
0.00 0.00 0.01 0.01 0.01 0.01 0.01 0.02 0.02 0.02 0.02 0.02 0.02 0.03 0.03 0.02 0.01 0.01 0.01 0.02 0.02 0.02 0.02 0.02 0.03 0.02 0.02 0.02 0.02 0.03 0.03 0.03 0.03 0.02 0.03 0.03 0.04 0.04 0.04 0.04 0.03 0.03 0.02 0.02
0.00 0.01 0.01 0.01 0.01 0.01 0.01 0.01 0.02 0.03 0.03 0.04 0.03 0.03 0.02 0.01 0.01 0.01 0.00 0.00 0.00 0.01 0.01 0.01 0.01 0.01 0.01 0.01 0.02 0.02 0.02 0.03 0.03 0.03 0.04 0.04 0.04 0.04 0.04 0.04 0.03 0.02 0.02 0.03
0.00 0.01 0.01 0.02 0.02 0.02 0.02 0.02 0.03 0.05 0.05 0.05 0.04 0.02 0.01 0.01 0.00 0.00 0.00 0.00 0.00 0.00 0.00 0.01 0.01 0.01 0.01 0.01 0.01 0.02 0.02 0.02 0.02 0.02 0.02 0.02 0.02 0.02 0.02 0.02 0.02 0.02 0.02 0.02
MSLP
1012.94 1013.33 1013.53 1013.60 1013.61 1013.65 1013.76 1013.98 1014.27 1014.58 1014.83 1014.96 1014.92 1014.70 1014.33 1013.87 1013.42 1013.06 1012.84 1012.79 1012.91 1013.14 1013.42 1013.69 1013.90 1014.03 1014.09 1014.12 1014.16 1014.28 1014.52 1014.89 1015.37 1015.93 1016.53 1017.09 1017.58 1017.97 1018.25 1018.44 1018.55 1018.63 1018.70 1018.79
1013.24 1013.50 1013.57 1013.52 1013.47 1013.50 1013.67 1013.98 1014.39 1014.82 1015.17 1015.34 1015.29 1015.00 1014.52 1013.93 1013.36 1012.89 1012.62 1012.56 1012.72 1013.03 1013.42 1013.80 1014.10 1014.29 1014.38 1014.40 1014.42 1014.51 1014.71 1015.05 1015.52 1016.09 1016.68 1017.25 1017.74 1018.11 1018.35 1018.49 1018.56 1018.61 1018.66 1018.75
1013.22 1013.35 1013.30 1013.19 1013.12 1013.19 1013.46 1013.91 1014.49 1015.06 1015.52 1015.75 1015.68 1015.33 1014.73 1014.01 1013.29 1012.71 1012.36 1012.28 1012.46 1012.84 1013.32 1013.80 1014.19 1014.45 1014.59 1014.63 1014.65 1014.72 1014.91 1015.24 1015.70 1016.26 1016.86 1017.43 1017.90 1018.25 1018.46 1018.56 1018.58 1018.59 1018.62 1018.70
1012.91 1012.92 1012.80 1012.66 1012.63 1012.80 1013.22 1013.86 1014.62 1015.36 1015.94 1016.22 1016.15 1015.72 1015.00 1014.12 1013.25 1012.53 1012.08 1011.96 1012.14 1012.56 1013.11 1013.68 1014.16 1014.50 1014.69 1014.77 1014.80 1014.87 1015.05 1015.37 1015.83 1016.39 1016.99 1017.56 1018.03 1018.36 1018.54 1018.61 1018.60 1018.57 1018.57 1018.64
1012.43 1012.35 1012.19 1012.07 1012.12 1012.44 1013.05 1013.90 1014.86 1015.76 1016.45 1016.79 1016.69 1016.18 1015.33 1014.30 1013.26 1012.40 1011.83 1011.63 1011.79 1012.22 1012.82 1013.45 1014.01 1014.42 1014.66 1014.78 1014.84 1014.92 1015.10 1015.41 1015.87 1016.42 1017.02 1017.59 1018.06 1018.39 1018.57 1018.62 1018.60 1018.54 1018.52 1018.57
1011.93 1011.79 1011.61 1011.55 1011.72 1012.21 1013.01 1014.06 1015.21 1016.26 1017.04 1017.41 1017.28 1016.68 1015.70 1014.51 1013.32 1012.31 1011.63 1011.34 1011.45 1011.87 1012.49 1013.16 1013.77 1014.24 1014.53 1014.69 1014.77 1014.86 1015.03 1015.33 1015.78 1016.33 1016.92 1017.50 1017.98 1018.32 1018.51 1018.57 1018.55 1018.49 1018.46 1018.50
1011.53 1011.34 1011.19 1011.20 1011.51 1012.16 1013.14 1014.36 1015.65 1016.81 1017.64 1018.00 1017.83 1017.14 1016.05 1014.73 1013.40 1012.26 1011.47 1011.10 1011.15 1011.55 1012.16 1012.86 1013.50 1014.00 1014.33 1014.51 1014.60 1014.69 1014.86 1015.15 1015.57 1016.11 1016.71 1017.28 1017.78 1018.15 1018.37 1018.45 1018.45 1018.41 1018.39 1018.42
1011.29 1011.09 1010.98 1011.08 1011.50 1012.29 1013.40 1014.73 1016.09 1017.29 1018.13 1018.46 1018.22 1017.45 1016.27 1014.86 1013.44 1012.22 1011.35 1010.91 1010.91 1011.27 1011.87 1012.56 1013.21 1013.73 1014.07 1014.27 1014.37 1014.46 1014.62 1014.89 1015.30 1015.82 1016.41 1016.99 1017.50 1017.90 1018.16 1018.28 1018.32 1018.30 1018.29 1018.32
1011.20 1011.01 1010.96 1011.14 1011.66 1012.53 1013.70 1015.07 1016.43 1017.60 1018.38 1018.65 1018.35 1017.52 1016.29 1014.83 1013.37 1012.12 1011.22 1010.76 1010.72 1011.05 1011.62 1012.29 1012.92 1013.44 1013.79 1014.00 1014.10 1014.20 1014.35 1014.61 1015.00 1015.50 1016.08 1016.66 1017.19 1017.62 1017.91 1018.08 1018.16 1018.18 1018.19 1018.22
1011.18 1011.05 1011.06 1011.32 1011.89 1012.79 1013.95 1015.27 1016.56 1017.63 1018.31 1018.49 1018.13 1017.27 1016.03 1014.59 1013.17 1011.95 1011.07 1010.60 1010.55 1010.85 1011.38 1012.02 1012.62 1013.12 1013.47 1013.68 1013.80 1013.91 1014.06 1014.32 1014.71 1015.21 1015.78 1016.36 1016.90 1017.34 1017.67 1017.88 1017.99 1018.04 1018.06 1018.10
1011.15 1011.10 1011.19 1011.50 1012.10 1012.97 1014.06 1015.26 1016.40 1017.32 1017.87 1017.95 1017.54 1016.69 1015.50 1014.14 1012.81 1011.68 1010.86 1010.43 1010.38 1010.64 1011.13 1011.70 1012.26 1012.73 1013.07 1013.29 1013.44 1013.57 1013.76 1014.05 1014.45 1014.95 1015.51 1016.09 1016.63 1017.09 1017.43 1017.66 1017.80 1017.87 1017.91 1017.96
1011.05 1011.10 1011.28 1011.64 1012.22 1013.03 1013.99 1015.02 1015.97 1016.70 1017.11 1017.10 1016.66 1015.84 1014.75 1013.53 1012.34 1011.33 1010.61 1010.23 1010.17 1010.40 1010.82 1011.32 1011.82 1012.24 1012.56 1012.80 1012.98 1013.17 1013.41 1013.74 1014.18 1014.70 1015.27 1015.85 1016.38 1016.83 1017.18 1017.42 1017.57 1017.66 1017.71 1017.77
1010.89 1011.05 1011.31 1011.71 1012.27 1012.97 1013.78 1014.61 1015.35 1015.89 1016.14 1016.05 1015.60 1014.86 1013.90 1012.84 1011.82 1010.97 1010.35 1010.01 1009.95 1010.12 1010.44 1010.85 1011.25 1011.62 1011.92 1012.17 1012.40 1012.65 1012.96 1013.36 1013.85 1014.40 1014.99 1015.57 1016.09 1016.53 1016.87 1017.11 1017.26 1017.36 1017.44 1017.51
1010.72 1011.01 1011.35 1011.77 1012.28 1012.87 1013.51 1014.13 1014.65 1015.00 1015.11 1014.95 1014.53 1013.87 1013.06 1012.18 1011.35 1010.64 1010.12 1009.82 1009.73 1009.81 1010.02 1010.30 1010.60 1010.88 1011.14 1011.40 1011.68 1012.00 1012.40 1012.87 1013.42 1014.02 1014.62 1015.20 1015.71 1016.13 1016.45 1016.69 1016.85 1016.96 1017.05 1017.15
1010.68 1011.07 1011.47 1011.90 1012.35 1012.82 1013.28 1013.69 1014.00 1014.17 1014.16 1013.95 1013.55 1013.00 1012.34 1011.65 1010.98 1010.41 1009.97 1009.69 1009.54 1009.52 1009.60 1009.73 1009.90 1010.09 1010.30 1010.55 1010.86 1011.25 1011.72 1012.26 1012.87 1013.50 1014.12 1014.70 1015.19 1015.60 1015.90 1016.13 1016.30 1016.43 1016.55 1016.68
1010.86 1011.32 1011.76 1012.16 1012.53 1012.87 1013.15 1013.36 1013.48 1013.49 1013.38 1013.13 1012.77 1012.32 1011.81 1011.28 1010.77 1010.32 1009.94 1009.65 1009.45 1009.31 1009.24 1009.22 1009.25 1009.33 1009.48 1009.70 1010.03 1010.45 1010.98 1011.58 1012.22 1012.87 1013.50 1014.06 1014.54 1014.92 1015.22 1015.44 1015.62 1015.79 1015.95 1016.12
1011.32 1011.81 1012.23 1012.58 1012.85 1013.04 1013.14 1013.17 1013.12 1012.99 1012.78 1012.52 1012.20 1011.84 1011.47 1011.09 1010.72 1010.37 1010.04 1009.75 1009.48 1009.24 1009.03 1008.87 1008.76 1008.73 1008.80 1008.99 1009.30 1009.73 1010.28 1010.89 1011.55 1012.20 1012.81 1013.34 1013.80 1014.16 1014.44 1014.67 1014.87 1015.07 1015.27 1015.50
1012.01 1012.48 1012.84 1013.09 1013.23 1013.26 1013.20 1013.05 1012.85 1012.60 1012.34 1012.06 1011.79 1011.52 1011.27 1011.02 1010.78 1010.53 1010.27 1009.98 1009.67 1009.36 1009.04 1008.76 1008.54 1008.42 1008.41 1008.54 1008.81 1009.22 1009.74 1010.33 1010.96 1011.57 1012.14 1012.64 1013.05 1013.39 1013.66 1013.90 1014.12 1014.35 1014.59 1014.85
1012.80 1013.19 1013.44 1013.56 1013.56 1013.43 1013.20 1012.91 1012.58 1012.25 1011.94 1011.67 1011.45 1011.28 1011.14 1011.03 1010.91 1010.77 1010.58 1010.33 1010.03 1009.68 1009.31 1008.96 1008.67 1008.46 1008.38 1008.45 1008.66 1009.01 1009.47 1010.00 1010.56 1011.10 1011.60 1012.04 1012.41 1012.71 1012.97 1013.21 1013.45 1013.70 1013.97 1014.25
1013.49 1013.75 1013.86 1013.83 1013.67 1013.38 1013.02 1012.61 1012.19 1011.81 1011.49 1011.25 1011.10 1011.03 1011.02 1011.05 1011.06 1011.04 1010.95 1010.78 1010.52 1010.20 1009.83 1009.47 1009.14 1008.89 1008.76 1008.76 1008.90 1009.16 1009.53 1009.96 1010.42 1010.87 1011.28 1011.64 1011.95 1012.21 1012.45 1012.69 1012.93 1013.19 1013.46 1013.74
1013.88 1013.98 1013.94 1013.75 1013.44 1013.03 1012.57 1012.08 1011.62 1011.24 1010.95 1010.77 1010.72 1010.76 1010.88 1011.04 1011.20 1011.31 1011.35 1011.29 1011.13 1010.88 1010.56 1010.23 1009.91 1009.65 1009.48 1009.43 1009.49 1009.66 1009.92 1010.23 1010.57 1010.90 1011.21 1011.48 1011.72 1011.93 1012.14 1012.36 1012.59 1012.83 1013.09 1013.34
1013.83 1013.78 1013.59 1013.26 1012.84 1012.34 1011.83 1011.32 1010.88 1010.54 1010.33 1010.25 1010.30 1010.48 1010.74 1011.04 1011.34 1011.59 1011.77 1011.84 1011.79 1011.65 1011.43 1011.16 1010.88 1010.63 1010.45 1010.35 1010.34 1010.42 1010.56 1010.75 1010.96 1011.17 1011.36 1011.54 1011.71 1011.87 1012.03 1012.21 1012.41 1012.63 1012.85 1013.05
1013.33 1013.14 1012.82 1012.40 1011.90 1011.38 1010.87 1010.42 1010.05 1009.81 1009.71 1009.76 1009.94 1010.25 1010.64 1011.08 1011.51 1011.89 1012.19 1012.39 1012.47 1012.44 1012.32 1012.13 1011.92 1011.70 1011.52 1011.39 1011.32 1011.30 1011.34 1011.41 1011.50 1011.59 1011.68 1011.76 1011.85 1011.95 1012.07 1012.21 1012.36 1012.53 1012.70 1012.83
1012.47 1012.16 1011.76 1011.29 1010.78 1010.30 1009.86 1009.51 1009.27 1009.17 1009.22 1009.41 1009.73 1010.17 1010.67 1011.21 1011.75 1012.23 1012.63 1012.93 1013.11 1013.18 1013.15 1013.04 1012.89 1012.71 1012.54 1012.38 1012.26 1012.18 1012.12 1012.09 1012.07 1012.06 1012.06 1012.06 1012.08 1012.12 1012.18 1012.27 1012.37 1012.48 1012.57 1012.63
1011.42 1011.05 1010.61 1010.14 1009.69 1009.29 1008.97 1008.77 1008.70 1008.77 1008.98 1009.31 1009.76 1010.30 1010.89 1011.49 1012.08 1012.62 1013.07 1013.42 1013.66 1013.79 1013.83 1013.78 1013.67 1013.52 1013.36 1013.20 1013.05 1012.91 1012.78 1012.67 1012.58 1012.49 1012.41 1012.35 1012.31 1012.29 1012.29 1012.32 1012.36 1012.40 1012.43 1012.41
1010.44 1010.04 1009.61 1009.20 1008.84 1008.57 1008.41 1008.38 1008.49 1008.72 1009.08 1009.54 1010.09 1010.69 1011.31 1011.93 1012.52 1013.04 1013.48 1013.83 1014.08 1014.23 1014.29 1014.27 1014.20 1014.07 1013.92 1013.76 1013.59 1013.42 1013.26 1013.10 1012.95 1012.81 1012.68 1012.56 1012.47 1012.39 1012.34 1012.31 1012.28 1012.25 1012.20 1012.12
Thickness
5776 5761 5751 5756 5758 5759 5753 5743 5736 5739 5747 5736 5727 5724 5726 5727 5725 5722 5720 5718 5717 5718 5722 5724 5726 5725 5724 5724 5725 5725 5724 5723 5722 5718 5715 5712 5710 5710 5709 5708 5706 5705 5703 5702
5759 5754 5770 5776 5771 5761 5752 5742 5739 5742 5746 5737 5726 5724 5728 5727 5725 5724 5722 5720 5719 5718 5718 5720 5722 5723 5722 5723 5724 5724 5723 5722 5721 5719 5717 5714 5711 5709 5708 5707 5705 5703 5702 5701
5755 5768 5783 5776 5768 5759 5752 5744 5742 5738 5738 5734 5726 5720 5724 5728 5729 5728 5727 5724 5723 5721 5719 5720 5721 5722 5722 5722 5724 5725 5724 5723 5721 5719 5716 5713 5710 5708 5706 5705 5704 5703 5701 5700
5761 5775 5778 5771 5765 5761 5745 5756 5751 5741 5726 5713 5717 5700 5719 5724 5725 5728 5729 5727 5725 5726 5724 5723 5723 5722 5722 5723 5724 5725 5723 5722 5721 5719 5717 5713 5709 5706 5705 5705 5704 5702 5701 5699
5763 5775 5773 5766 5768 5766 5755 5755 5746 5735 5723 5712 5711 5702 5710 5722 5722 5729 5732 5732 5731 5731 5730 5728 5727 5726 5726 5726 5725 5724 5722 5721 5721 5719 5717 5714 5710 5708 5706 5704 5702 5701 5700 5698
5772 5783 5780 5775 5774 5770 5757 5745 5732 5719 5710 5701 5710 5702 5707 5719 5728 5735 5738 5738 5737 5736 5735 5733 5731 5729 5728 5727 5726 5724 5721 5720 5720 5719 5716 5714 5710 5707 5704 5702 5701 5699 5698 5697
5761 5772 5780 5779 5761 5759 5751 5726 5704 5702 5692 5697 5711 5705 5712 5737 5744 5745 5745 5743 5743 5741 5738 5735 5732 5730 5729 5728 5727 5725 5722 5720 5719 5718 5716 5714 5711 5708 5705 5703 5701 5698 5696 5695
5743 5746 5769 5773 5764 5750 5745 5731 5705 5694 5690 5696 5708 5706 5728 5750 5754 5754 5752 5750 5747 5743 5741 5739 5737 5735 5733 5732 5729 5727 5724 5722 5720 5718 5716 5714 5711 5708 5705 5703 5701 5698 5696 5695
5740 5744 5771 5775 5773 5761 5741 5729 5726 5704 5698 5693 5702 5716 5736 5753 5753 5753 5751 5748 5746 5746 5745 5743 5742 5739 5737 5735 5732 5730 5726 5724 5721 5719 5716 5712 5710 5707 5705 5703 5700 5698 5695 5693
5755 5745 5759 5767 5767 5757 5750 5730 5711 5700 5689 5687 5701 5710 5719 5742 5747 5749 5749 5748 5748 5748 5747 5746 5745 5743 5741 5739 5736 5732 5729 5726 5723 5720 5716 5713 5710 5707 5705 5701 5698 5696 5694 5692
5759 5743 5746 5752 5747 5742 5736 5727 5711 5696 5695 5686 5687 5707 5742 5746 5751 5750 5752 5753 5752 5750 5750 5749 5748 5746 5744 5740 5736 5732 5729 5726 5723 5720 5716 5713 5710 5706 5703 5700 5698 5695 5692 5690
5752 5735 5727 5739 5751 5753 5745 5731 5713 5703 5697 5689 5687 5707 5755 5754 5755 5755 5756 5757 5756 5755 5753 5752 5749 5746 5742 5739 5736 5733 5730 5727 5724 5720 5716 5712 5709 5705 5701 5698 5696 5693 5690 5688
5748 5730 5715 5719 5727 5739 5736 5730 5719 5705 5693 5682 5685 5712 5751 5752 5754 5755 5755 5756 5757 5756 5753 5751 5748 5745 5744 5742 5739 5735 5732 5729 5725 5720 5715 5711 5707 5703 5700 5697 5694 5691 5688 5685
5752 5729 5719 5712 5717 5729 5728 5727 5717 5706 5692 5688 5696 5716 5737 5744 5746 5750 5753 5754 5755 5755 5753 5750 5748 5747 5746 5744 5741 5738 5734 5730 5725 5720 5714 5710 5706 5703 5700 5696 5693 5689 5686 5683
5746 5728 5728 5728 5733 5732 5730 5728 5721 5712 5709 5703 5713 5718 5733 5739 5742 5748 5752 5752 5751 5751 5751 5750 5749 5748 5746 5743 5740 5738 5735 5730 5725 5718 5713 5710 5707 5702 5698 5694 5690 5686 5683 5680
5734 5726 5725 5727 5732 5729 5725 5729 5725 5720 5719 5715 5718 5721 5736 5738 5742 5744 5747 5748 5747 5748 5750 5751 5750 5748 5745 5743 5740 5737 5733 5729 5723 5718 5714 5710 5704 5699 5695 5691 5687 5683 5680 5676
5721 5717 5710 5707 5717 5721 5711 5723 5724 5722 5723 5719 5714 5723 5730 5731 5733 5735 5738 5739 5740 5743 5745 5746 5746 5745 5745 5743 5740 5735 5732 5725 5719 5715 5711 5706 5701 5696 5692 5688 5683 5679 5676 5673
5714 5707 5697 5696 5705 5694 5713 5729 5728 5721 5720 5720 5720 5722 5724 5725 5726 5728 5729 5731 5733 5736 5738 5741 5742 5742 5741 5741 5737 5732 5726 5720 5715 5710 5707 5702 5697 5693 5688 5683 5679 5676 5672 5669
5713 5703 5690 5684 5686 5694 5712 5722 5720 5714 5713 5720 5717 5719 5721 5724 5723 5719 5721 5723 5725 5727 5730 5733 5736 5736 5734 5731 5728 5724 5718 5713 5709 5705 5702 5699 5694 5689 5684 5680 5677 5673 5669 5666
5702 5699 5687 5679 5683 5682 5706 5721 5723 5713 5703 5718 5715 5713 5714 5715 5704 5703 5709 5713 5714 5718 5722 5724 5726 5726 5724 5721 5718 5714 5709 5705 5703 5701 5697 5693 5689 5684 5680 5676 5673 5669 5665 5662
5691 5684 5681 5676 5676 5688 5712 5718 5715 5692 5698 5713 5710 5708 5705 5699 5696 5696 5701 5703 5705 5708 5710 5712 5713 5711 5709 5708 5708 5703 5699 5697 5696 5694 5690 5686 5682 5679 5675 5671 5667 5663 5659 5656
5684 5677 5673 5667 5669 5682 5712 5709 5702 5700 5706 5706 5704 5702 5698 5695 5692 5691 5691 5692 5694 5695 5697 5699 5698 5696 5694 5695 5694 5691 5687 5688 5687 5685 5681 5678 5675 5672 5669 5664 5659 5655 5651 5648
5682 5684 5680 5679 5686 5701 5705 5705 5706 5703 5701 5700 5697 5695 5693 5688 5684 5682 5680 5680 5681 5682 5682 5684 5683 5680 5678 5678 5679 5677 5675 5676 5675 5673 5669 5666 5664 5660 5658 5654 5650 5646 5642 5638
5684 5684 5681 5681 5691 5698 5701 5701 5701 5700 5698 5696 5693 5689 5686 5680 5676 5672 5670 5669 5669 5669 5670 5670 5668 5665 5663 5663 5665 5664 5663 5663 5662 5659 5656 5653 5650 5647 5644 5641 5639 5635 5632 5628
5685 5678 5676 5679 5688 5693 5696 5696 5695 5694 5693 5689 5684 5680 5676 5672 5665 5662 5659 5658 5657 5657 5655 5654 5651 5649 5648 5649 5649 5649 5649 5648 5646 5643 5641 5638 5636 5633 5630 5628 5626 5623 5621 5617
5676 5675 5674 5678 5688 5685 5687 5690 5689 5685 5682 5679 5674 5668 5666 5663 5657 5653 5650 5647 5646 5644 5643 5641 5640 5638 5637 5636 5636 5635 5635 5634 5632 5629 5626 5623 5621 5618 5616 5614 5612 5610 5607 5604